Starlink 30269

operational
NORAD ID: 57528 Int'l Des: 2023-115 Owner: SPXS Country: US Constellation: starlink
LEOCIRCULAR

Starlink 30269について

説明を読み込み中...

リアルタイム位置

3D地球を読み込み中...

次回通過

高度履歴

Altitude vs Time

uPlot chart will show altitude changes over time

軌道要素

1 57528U 23115H 25308.36055772 .00000137 00000-0 25191-4 0 9995
2 57528 43.0051 325.5882 0001035 275.5675 84.5049 15.02536429123464
Epoch: Nov 4, 2025 • Age: 12 hours

現在のステータス

高度 571.6 km
速度 7.58 km/s
衛星直下点 -42.91°S, 134.07°W
打ち上げ日 Aug 8, 2023
運用期間 2.2 years
タイプ internet

技術仕様

分類 Payload
質量 730.00 kg
乾燥質量 700.00 kg
総質量 730.00 kg
長さ 0.30 m
直径 4.10 m
スパン 29.00 m
形状 Box + pan
製造者 SPXS
バスタイプ Starlink V2M
フェーズステータス In Orbit
所有者/国 SPXS/US

大規模コンステレーション

Loading constellations...